Showing default

RADUGA 25, 20499

Orbit data source: Space-Track

RADUGA 25, 20499 is a payload satellite owned by UNKS (CIS) in GEO that was launched on Thu, 15 Feb 1990 UTC via a PROTON-K/DM-2 launch vehicle from the Tyuratam Missile And Space Complex (TTMTR). Payload-class satellites include a variety of spacecraft equipped with specific instruments for various scientific and technological missions. These include communications satellites like Starlink; space stations such as the ISS; scientific satellites like the Hubble; Earth observation satellites from companies like Planet Labs, Umbra, and HawkEye 360; GPS; miniature CubeSats for education and research; and military/defense satellites.

Loading next visibility...
Identifier
20499, 1990-016A
Orbit
GEO
Country
Flag of CISCIS
Related business
Manufacturer
NPO PM
Mission
Non-operational Defense Communications
Bus & Motor
RADUGA, Unknown motor
Mass
1,965 kg wet, ~1,800 kg dry
Launch date (UTC)
1990-02-15 (36 years ago)
Launch vehicle
PROTON-K/DM-2
Launch site
Tyuratam Missile And Space Complex (TTMTR)
Object type
Payload
Rocket body
Debris
Shape & HBR
Cyl + 2 Pan, 4.8 m
Radar Cross Section
16.975 m², Large (>1 m²)

Expand to show TLE details & history
Last TLE update: 1 day ago

TLE from 1 day ago
0 RADUGA 25
1 20499U 90016A   25306.38892786 -.00000241  00000-0  00000+0 0  9994
2 20499  12.5613 336.2511 0005992 221.2835 311.8724  1.00255984130636
Epoch: 2025-11-02T09:20Z
TLE epoch observation values (Epoch: 2025-11-02T09:20:03.367Z)
Latitude
1.48856°
Longitude
-32.42159°
Altitude
35,773.516 km
Speed
3.076 km/s
True Right ascension
09h 57m 59s
True Declination
1° 29' 13"
Sunlit
Object was in daylight at epoch
Visualization orbit readout
Latitude
Unknown
Longitude
Unknown
Altitude
Unknown
Speed
Unknown
Apparent Right ascension
Unknown
Apparent Declination
Unknown
Sunlit
N/A
Visualization observer readout
Local Sidereal Time
14:39:09
Azimuth
Unknown
Elevation
Unknown
Doppler factor
Unknown
Orbital elements
Apogee altitude
35,817.29 km
Perigee altitude
35,766.753 km
Semi-major axis
42,170.158 km
Eccentricity
0.0006
Inclination
12.5613°
RAAN
336.2511°
Arg. of periapsis
221.2835°
True anomaly
311.82125°
Mean anomaly
311.8724°
Eccentric anomaly
311.84683°
Mean motion
0.25063 °/min
Orbital period
1,436.37 mins
BSTAR
0
Loading maneuver chart data...
Computing Atmospheric mass density...
Loading historical data...
Loading historical data...
Loading historical data...
Loading historical data...
Loading historical data...
Loading historical data...
Loading historical data...

Documentation

Showing up to 5 results
|